TimeCDT,TemperatureF,Dew PointF,Humidity,Sea Level PressureIn,VisibilityMPH,Wind Direction,Wind SpeedMPH,Gust SpeedMPH,PrecipitationIn,Events,Conditions,WindDirDegrees,DateUTC
12:51 AM,46.0,30.0,54,30.17,10.0,NE,6.9,-,N/A,,Clear,40,2013-04-19 05:51:00
1:51 AM,45.0,30.0,56,30.19,10.0,NE,4.6,-,N/A,,Clear,40,2013-04-19 06:51:00
2:51 AM,44.1,30.9,60,30.20,10.0,NNE,4.6,-,N/A,,Clear,20,2013-04-19 07:51:00
3:51 AM,37.9,30.0,73,30.23,10.0,Calm,Calm,-,N/A,,Clear,0,2013-04-19 08:51:00
4:51 AM,41.0,30.9,67,30.26,10.0,NNE,4.6,-,N/A,,Clear,30,2013-04-19 09:51:00
5:51 AM,42.1,30.0,62,30.26,10.0,NNE,4.6,-,N/A,,Clear,20,2013-04-19 10:51:00
6:51 AM,37.0,30.0,76,30.28,10.0,Calm,Calm,-,N/A,,Clear,0,2013-04-19 11:51:00
7:51 AM,37.0,30.9,79,30.31,10.0,Calm,Calm,-,N/A,,Clear,0,2013-04-19 12:51:00
8:51 AM,48.0,32.0,54,30.34,10.0,Calm,Calm,-,N/A,,Clear,0,2013-04-19 13:51:00
9:51 AM,50.0,21.9,33,30.34,10.0,NE,4.6,-,N/A,,Clear,50,2013-04-19 14:51:00
10:51 AM,54.0,21.9,29,30.34,10.0,ENE,6.9,-,N/A,,Clear,60,2013-04-19 15:51:00
11:51 AM,55.9,19.0,24,30.33,10.0,East,5.8,-,N/A,,Clear,90,2013-04-19 16:51:00
12:51 PM,57.9,19.9,23,30.31,10.0,Calm,Calm,-,N/A,,Clear,0,2013-04-19 17:51:00
1:51 PM,61.0,19.0,20,30.27,10.0,Variable,6.9,-,N/A,,Clear,0,2013-04-19 18:51:00
2:51 PM,63.0,19.0,18,30.24,10.0,WSW,8.1,-,N/A,,Clear,250,2013-04-19 19:51:00
3:51 PM,66.0,17.1,15,30.21,10.0,WNW,6.9,-,N/A,,Clear,290,2013-04-19 20:51:00
4:51 PM,66.0,16.0,15,30.16,10.0,Variable,3.5,-,N/A,,Clear,0,2013-04-19 21:51:00
5:51 PM,66.9,16.0,14,30.14,10.0,Calm,Calm,-,N/A,,Clear,0,2013-04-19 22:51:00
6:51 PM,66.9,18.0,15,30.13,10.0,Calm,Calm,-,N/A,,Clear,0,2013-04-19 23:51:00
7:51 PM,64.9,19.0,17,30.12,10.0,Calm,Calm,-,N/A,,Clear,0,2013-04-20 00:51:00
8:51 PM,61.0,21.9,22,30.12,10.0,SSE,4.6,-,N/A,,Clear,150,2013-04-20 01:51:00
9:51 PM,57.9,26.1,30,30.13,10.0,South,5.8,-,N/A,,Clear,170,2013-04-20 02:51:00
10:51 PM,52.0,28.0,40,30.13,10.0,SSE,9.2,-,N/A,,Clear,150,2013-04-20 03:51:00
11:51 PM,51.1,26.1,38,30.13,10.0,SSE,5.8,-,N/A,,Clear,160,2013-04-20 04:51:00